Powrót do katalogu

SL-16 DEB

AktywnyLEO
NORAD 26968·DEBRIS·🇷🇺 Russia

Wystrzelony Mar 26, 1993 z Baikonur Cosmodrome

Loading…

Następne Przeloty (najbliższe 24 godziny)

TLE

ŚwieżeSource: Space-Track

Epoka: Sep 14, 2026, 05:15 UTC

1 26968U 93016AJ  26257.21894846  .00001441  00000-0  43639-3 0  9992
2 26968  70.9931  66.9236 0005912  83.0094  91.2238 14.43978765742153

Śledź SL-16 DEB w czasie rzeczywistym z AllMySat

Download on the App Store